N9AAA Weather Reports


time (UTC)temp
C
wind
direction
speed
KPH
gust
KPH
rain 1hr
cm
rain 24hr
cm
rain mn
cm
humidity
%
barometer
mb
20260505201039 13 311 4.8 16.1 0.00 0.03 0.00 39 1008.5
20260505200539 13 303 6.4 19.3 0.00 0.03 0.00 37 1008.3
20260505200043 13 351 6.4 19.3 0.00 0.03 0.00 36 1008.5
20260505195540 13 306 6.4 17.7 0.00 0.03 0.00 37 1008.5
20260505195040 13 253 4.8 17.7 0.00 0.03 0.00 36 1008.6
20260505194546 13 350 8.0 19.3 0.00 0.03 0.00 35 1008.6
20260505194040 13 232 8.0 19.3 0.00 0.03 0.00 38 1008.7
20260505193540 13 243 4.8 19.3 0.00 0.03 0.00 39 1008.6
20260505193047 13 305 3.2 20.9 0.00 0.03 0.00 39 1008.7
20260505192542 13 296 9.7 20.9 0.00 0.03 0.00 38 1008.8
20260505192040 13 325 6.4 20.9 0.00 0.03 0.00 38 1008.8
20260505191553 13 351 3.2 20.9 0.00 0.03 0.00 40 1008.8
20260505191040 13 273 6.4 20.9 0.00 0.03 0.00 40 1008.9
20260505190539 13 270 3.2 19.3 0.00 0.03 0.00 41 1009.0
20260505190045 13 278 6.4 19.3 0.00 0.03 0.00 38 1008.9
20260505185542 13 275 6.4 19.3 0.00 0.03 0.00 38 1009.1
20260505185040 13 313 3.2 12.9 0.00 0.03 0.00 38 1008.9
20260505184549 12 325 3.2 12.9 0.00 0.03 0.00 40 1009.0
20260505184040 12 303 3.2 16.1 0.00 0.03 0.00 39 1008.9
20260505183540 12 300 4.8 16.1 0.00 0.03 0.00 39 1008.9
20260505183052 12 350 6.4 12.9 0.00 0.03 0.00 37 1008.8
20260505182540 12 259 4.8 22.5 0.00 0.03 0.00 37 1008.8
20260505182040 12 266 4.8 22.5 0.00 0.03 0.00 37 1008.7
20260505181549 12 338 6.4 17.7 0.00 0.03 0.00 36 1008.7
20260505181044 12 322 4.8 17.7 0.00 0.03 0.00 38 1008.6
20260505180541 12 258 8.0 20.9 0.00 0.03 0.00 38 1008.6
20260505180056 12 261 8.0 20.9 0.00 0.03 0.00 37 1008.6
20260505175540 12 352 4.8 19.3 0.00 0.03 0.00 38 1008.8
20260505175037 12 271 6.4 24.1 0.00 0.03 0.00 34 1008.5
20260505174545 12 34 3.2 24.1 0.00 0.03 0.00 36 1008.5
20260505174037 12 326 9.7 24.1 0.00 0.03 0.00 35 1008.4
20260505173537 12 295 3.2 19.3 0.00 0.03 0.00 35 1008.5
20260505173045 12 5 8.0 19.3 0.00 0.03 0.00 34 1008.5
20260505172538 12 315 8.0 19.3 0.00 0.03 0.00 35 1008.5
20260505172038 12 286 6.4 19.3 0.00 0.03 0.00 34 1008.4
20260505171548 12 309 6.4 19.3 0.00 0.03 0.00 32 1008.4
20260505171039 12 16 9.7 20.9 0.00 0.03 0.00 35 1008.5
20260505170537 12 326 8.0 20.9 0.00 0.03 0.00 35 1008.7
20260505170052 12 10 8.0 20.9 0.00 0.03 0.00 32 1008.8
20260505165541 12 297 6.4 19.3 0.00 0.03 0.00 34 1008.8
20260505165038 12 322 8.0 20.9 0.00 0.03 0.00 33 1008.7
20260505164547 12 328 9.7 20.9 0.00 0.03 0.00 32 1008.6
20260505164038 12 331 4.8 27.4 0.00 0.03 0.00 35 1008.4
20260505163537 12 310 11.3 27.4 0.00 0.03 0.00 33 1008.3
20260505163048 12 316 4.8 17.7 0.00 0.03 0.00 35 1008.3
20260505162541 12 302 6.4 17.7 0.00 0.03 0.00 34 1008.4
20260505162037 12 325 4.8 17.7 0.00 0.03 0.00 38 1008.2
20260505161545 12 246 8.0 20.9 0.00 0.03 0.00 38 1008.3
20260505161038 12 301 6.4 20.9 0.00 0.03 0.00 37 1008.6
20260505160537 11 259 6.4 17.7 0.00 0.03 0.00 39 1008.8
20260505153053 11 234 11.3 20.9 0.00 0.03 0.00 35 1008.4
20260505152539 11 322 4.8 19.3 0.00 0.03 0.00 40 1008.3
20260505152038 11 304 6.4 27.4 0.00 0.03 0.00 38 1008.2
20260505151549 11 303 8.0 27.4 0.00 0.03 0.00 38 1008.3
20260505151037 11 323 6.4 25.7 0.00 0.03 0.00 38 1008.2
20260505150538 11 311 8.0 20.9 0.00 0.03 0.00 39 1008.3
20260505140540 10 326 4.8 24.1 0.00 0.03 0.00 45 1008.5
20260505125040 8 327 3.2 9.7 0.00 0.03 0.00 51 1008.6
20260505124544 8 0 1.6 9.7 0.00 0.03 0.00 52 1008.8
20260505124040 8 324 1.6 9.7 0.00 0.03 0.00 53 1008.4
20260505123539 8 350 1.6 8.0 0.00 0.03 0.00 54 1008.4
20260505123053 8 0 1.6 8.0 0.00 0.03 0.00 56 1008.4
20260505122542 8 315 0.0 9.7 0.00 0.03 0.00 57 1008.5
20260505122040 7 285 3.2 9.7 0.00 0.03 0.00 55 1008.9
20260505121551 7 276 0.0 6.4 0.00 0.03 0.00 56 1008.9
20260505121040 7 273 0.0 6.4 0.00 0.03 0.00 57 1008.3
20260505120539 7 319 1.6 6.4 0.00 0.03 0.00 58 1007.9
20260505120052 7 318 1.6 6.4 0.00 0.03 0.00 59 1008.0
20260505115539 7 321 0.0 6.4 0.00 0.03 0.00 60 1008.4
20260505115040 7 258 3.2 8.0 0.00 0.03 0.00 60 1008.6
20260505114544 7 253 3.2 9.7 0.00 0.03 0.00 61 1008.7
20260505114040 6 194 4.8 9.7 0.00 0.03 0.00 62 1008.8
20260505113540 6 229 0.0 1.6 0.00 0.03 0.00 62 1007.9
20260505113057 6 0 0.0 0.0 0.00 0.03 0.00 62 1007.3
20260505112540 6 0 0.0 0.0 0.00 0.03 0.00 61 1007.1
20260505112040 6 0 0.0 0.0 0.00 0.03 0.00 59 1007.0
20260505111549 7 0 0.0 0.0 0.00 0.03 0.00 58 1006.8
20260505111043 7 0 0.0 0.0 0.00 0.03 0.00 58 1006.5
20260505110539 7 0 0.0 3.2 0.00 0.03 0.00 57 1006.7
20260505102040 7 5 6.4 14.5 0.00 0.03 0.00 51 1007.1
20260505101554 7 360 6.4 14.5 0.00 0.03 0.00 51 1007.0
20260505101040 8 347 4.8 14.5 0.00 0.03 0.00 51 1006.9
20260505100540 8 328 1.6 14.5 0.00 0.03 0.00 51 1006.7
20260505100052 8 352 6.4 14.5 0.00 0.03 0.00 50 1006.5
20260505095540 8 34 1.6 16.1 0.00 0.03 0.00 51 1006.3
20260505095043 8 20 6.4 20.9 0.00 0.03 0.00 51 1006.4
20260505094552 8 360 6.4 20.9 0.00 0.03 0.00 51 1006.6
20260505094040 8 344 4.8 20.9 0.00 0.03 0.00 51 1006.5
20260505093539 8 56 8.0 20.9 0.00 0.03 0.00 52 1006.1
20260505093052 8 324 6.4 19.3 0.00 0.03 0.00 54 1006.1
20260505092540 8 340 4.8 16.1 0.00 0.03 0.00 54 1006.0
20260505092044 8 36 4.8 16.1 0.00 0.03 0.00 55 1006.0
20260505091547 8 352 1.6 14.5 0.00 0.03 0.00 55 1006.1
20260505091040 8 22 1.6 14.5 0.00 0.03 0.00 55 1006.0
20260505090540 8 344 4.8 14.5 0.00 0.03 0.00 54 1006.3
20260505090053 8 9 3.2 11.3 0.00 0.03 0.00 54 1006.6
20260505085544 8 360 3.2 9.7 0.00 0.03 0.00 54 1006.7
20260505085042 8 313 3.2 11.3 0.00 0.03 0.00 54 1006.5
20260505084547 8 14 3.2 12.9 0.00 0.03 0.00 54 1006.2
20260505084039 8 352 3.2 16.1 0.00 0.03 0.00 53 1006.0
20260505083544 8 11 6.4 16.1 0.00 0.03 0.00 53 1005.8
20260505083102 8 340 4.8 17.7 0.00 0.03 0.00 53 1005.6
20260505082540 8 352 4.8 17.7 0.00 0.03 0.00 52 1005.4
20260505082040 8 349 4.8 19.3 0.00 0.03 0.00 52 1005.4
20260505081551 8 61 8.0 19.3 0.00 0.03 0.00 52 1005.1
20260505081039 9 329 6.4 19.3 0.00 0.03 0.00 52 1005.0
20260505080540 9 9 9.7 19.3 0.00 0.03 0.00 51 1004.7
20260505080045 9 13 6.4 17.7 0.00 0.03 0.00 51 1004.7
20260505075541 9 318 8.0 17.7 0.00 0.03 0.00 50 1004.9
20260505075040 9 328 3.2 12.9 0.00 0.03 0.00 50 1004.9
20260505074550 9 348 4.8 12.9 0.00 0.03 0.00 49 1004.7
20260505074040 9 315 6.4 17.7 0.00 0.03 0.00 49 1004.5
20260505073541 10 360 3.2 17.7 0.00 0.03 0.00 49 1004.5
20260505073053 10 5 8.0 22.5 0.00 0.03 0.00 48 1004.2
20260505072539 10 352 9.7 22.5 0.00 0.03 0.00 48 1003.9
20260505072040 10 21 9.7 22.5 0.00 0.03 0.00 48 1003.9
20260505071545 10 10 9.7 22.5 0.00 0.03 0.00 48 1003.8
20260505071039 10 5 12.9 22.5 0.00 0.03 0.00 48 1003.6
20260505070540 10 5 8.0 22.5 0.00 0.03 0.00 48 1003.8
20260505070059 10 342 11.3 22.5 0.00 0.03 0.00 49 1003.8
20260505065540 10 322 8.0 24.1 0.00 0.03 0.00 50 1004.0
20260505065039 10 25 9.7 24.1 0.00 0.03 0.00 50 1004.1
20260505064556 11 340 9.7 24.1 0.00 0.03 0.00 50 1004.0
20260505064040 11 24 6.4 20.9 0.00 0.03 0.00 52 1003.6
20260505063540 11 24 4.8 22.5 0.00 0.03 0.00 52 1003.2
20260505063047 11 20 11.3 22.5 0.00 0.03 0.00 51 1003.3
20260505062540 11 18 9.7 22.5 0.00 0.03 0.00 51 1003.5
20260505062040 11 339 8.0 20.9 0.00 0.03 0.00 51 1003.3
20260505061612 11 352 4.8 11.3 0.00 0.03 0.00 51 1003.3
20260505061039 11 24 3.2 12.9 0.00 0.03 0.00 50 1003.1
20260505060539 11 352 3.2 12.9 0.00 0.03 0.00 50 1002.7
20260505060056 11 352 3.2 11.3 0.00 0.03 0.00 50 1002.6
20260505055539 12 330 3.2 8.0 0.00 0.03 0.00 49 1002.7
20260505055041 12 305 3.2 14.5 0.00 0.03 0.00 48 1002.6
20260505054554 12 317 3.2 14.5 0.00 0.03 0.00 48 1002.7
20260505054040 12 321 3.2 14.5 0.00 0.03 0.00 48 1002.8
20260505053541 12 325 4.8 19.3 0.00 0.03 0.00 47 1002.8
20260505053050 12 350 4.8 19.3 0.00 0.03 0.00 47 1002.8
20260505052540 12 329 6.4 17.7 0.00 0.03 0.00 46 1002.6
20260505052040 12 293 6.4 16.1 0.00 0.03 0.00 45 1002.4
20260505051549 12 296 3.2 12.9 0.00 0.03 0.00 45 1002.6
20260505051041 13 314 3.2 11.3 0.00 0.03 0.00 45 1002.7
20260505050540 13 296 3.2 11.3 0.00 0.03 0.00 45 1002.6
20260505041546 14 326 3.2 6.4 0.00 0.03 0.03 40 1001.5
20260505041044 15 309 1.6 6.4 0.00 0.03 0.03 40 1001.5
20260505040537 15 279 1.6 6.4 0.00 0.03 0.03 40 1001.4
20260505040100 15 344 3.2 9.7 0.00 0.03 0.03 40 1001.3
20260505035542 15 0 1.6 19.3 0.00 0.03 0.03 39 1001.3
20260505035040 15 311 3.2 19.3 0.00 0.03 0.03 38 1001.2
20260505034549 15 275 6.4 19.3 0.00 0.03 0.03 37 1001.3
20260505034040 15 305 6.4 14.5 0.00 0.03 0.03 37 1001.3
20260505033540 15 328 4.8 11.3 0.00 0.03 0.03 38 1001.4
20260505033100 15 294 1.6 8.0 0.00 0.03 0.03 38 1001.5
20260505032539 15 327 3.2 9.7 0.00 0.03 0.03 38 1001.5
20260505032040 15 319 1.6 9.7 0.00 0.03 0.03 38 1001.5
20260505031555 16 302 4.8 11.3 0.00 0.03 0.03 37 1001.4
20260505031039 16 298 3.2 14.5 0.00 0.03 0.03 37 1001.5
20260505030539 16 215 4.8 14.5 0.00 0.03 0.03 37 1001.4
20260505030054 16 342 4.8 14.5 0.00 0.03 0.03 37 1001.3
20260505025540 16 279 4.8 14.5 0.00 0.03 0.03 36 1001.2
20260505025038 16 298 6.4 19.3 0.00 0.03 0.03 35 1001.1
20260505024550 16 319 3.2 19.3 0.00 0.03 0.03 36 1001.0
20260505024040 16 325 6.4 19.3 0.00 0.03 0.03 35 1000.9
20260505023543 16 276 4.8 16.1 0.00 0.03 0.03 36 1000.7
20260505023050 16 264 4.8 14.5 0.00 0.03 0.03 36 1000.4
20260505022540 16 304 3.2 16.1 0.00 0.03 0.03 37 1000.2
20260505022042 17 325 3.2 16.1 0.00 0.03 0.03 37 1000.2
20260505021553 17 317 4.8 16.1 0.00 0.03 0.03 38 1000.2
20260505021039 17 318 3.2 17.7 0.00 0.03 0.03 37 1000.2
20260505020539 17 312 6.4 17.7 0.00 0.03 0.03 37 1000.3
20260505020050 17 349 6.4 16.1 0.00 0.03 0.03 37 1000.2
20260505015540 18 327 6.4 16.1 0.00 0.03 0.03 38 999.8
20260505015040 18 309 4.8 16.1 0.00 0.03 0.03 38 999.6
20260505014545 18 329 4.8 17.7 0.00 0.03 0.03 37 999.3
20260505014041 18 296 4.8 30.6 0.00 0.03 0.03 37 999.2
20260505013540 18 331 8.0 30.6 0.00 0.03 0.03 37 999.0
20260505013051 18 319 6.4 16.1 0.00 0.03 0.03 37 998.8
20260505012540 19 315 4.8 16.1 0.00 0.03 0.03 38 998.5
20260505012043 19 352 6.4 16.1 0.00 0.03 0.03 37 998.2
20260505011550 20 334 6.4 16.1 0.00 0.03 0.03 36 998.0
20260505011040 20 285 8.0 27.4 0.00 0.03 0.03 36 997.7
20260505010540 20 311 9.7 27.4 0.00 0.03 0.03 36 997.5
20260505010106 20 298 8.0 20.9 0.00 0.03 0.03 36 997.4
20260505005540 20 15 8.0 20.9 0.00 0.03 0.03 37 997.3
20260505005040 21 327 8.0 20.9 0.00 0.03 0.03 37 997.3
20260505004550 21 324 8.0 20.9 0.00 0.03 0.03 37 997.2
20260505004040 21 321 9.7 20.9 0.00 0.03 0.03 37 997.1
20260505003543 22 311 6.4 25.7 0.00 0.03 0.03 38 997.1
20260505003053 22 340 12.9 25.7 0.00 0.03 0.03 38 996.9
20260505002539 22 317 8.0 22.5 0.00 0.03 0.03 38 996.8
20260505002040 23 315 9.7 20.9 0.00 0.03 0.03 39 996.5
20260505001557 23 257 4.8 17.7 0.00 0.03 0.03 40 996.2
20260505001038 23 326 8.0 19.3 0.00 0.03 0.03 39 996.2
20260505000540 23 321 3.2 24.1 0.00 0.03 0.03 40 996.0
20260504235540 23 257 9.7 37.0 0.00 0.03 0.03 39 995.9
20260504235040 24 334 6.4 19.3 0.00 0.03 0.03 39 996.1
20260504234603 24 298 6.4 19.3 0.00 0.03 0.03 40 996.1
20260504234041 24 315 6.4 19.3 0.00 0.03 0.03 38 996.1
20260504233540 24 284 6.4 17.7 0.00 0.03 0.03 39 995.9
20260504233050 24 300 4.8 17.7 0.00 0.03 0.03 41 995.9
20260504232540 24 306 4.8 17.7 0.00 0.03 0.03 41 995.9
20260504232041 24 308 4.8 14.5 0.00 0.03 0.03 41 996.0
20260504231550 24 313 4.8 14.5 0.00 0.03 0.03 43 996.0
20260504231039 23 317 1.6 9.7 0.03 0.03 0.03 43 996.1
20260504230537 23 275 3.2 16.1 0.03 0.03 0.03 44 996.0
20260504230047 23 234 1.6 16.1 0.03 0.03 0.03 43 996.1
20260504225541 23 266 3.2 16.1 0.03 0.03 0.03 42 996.0
20260504225038 23 240 4.8 20.9 0.03 0.03 0.03 43 996.1
20260504224554 23 242 6.4 20.9 0.03 0.03 0.03 44 996.2
20260504224042 23 303 4.8 22.5 0.03 0.03 0.03 44 996.2
20260504223542 23 254 6.4 22.5 0.03 0.03 0.03 44 996.2
20260504223044 23 296 6.4 38.6 0.03 0.03 0.03 44 996.3
20260504222540 22 247 11.3 48.3 0.03 0.03 0.03 43 996.4
20260504222039 22 240 24.1 48.3 0.03 0.03 0.03 44 996.5
20260504221551 22 301 12.9 33.8 0.03 0.03 0.03 46 996.8
20260504221040 23 306 8.0 33.8 0.00 0.00 0.00 44 997.0
20260504220540 25 262 9.7 30.6 0.00 0.00 0.00 36 997.1
20260504220057 25 244 11.3 33.8 0.00 0.00 0.00 34 996.3
20260504215540 25 234 16.1 33.8 0.00 0.00 0.00 34 996.5
20260504215044 26 235 11.3 37.0 0.00 0.00 0.00 33 996.4
20260504214544 26 291 8.0 37.0 0.00 0.00 0.00 35 996.3
20260504214040 26 270 14.5 35.4 0.00 0.00 0.00 34 996.3
20260504213539 26 214 9.7 35.4 0.00 0.00 0.00 34 996.5
20260504213106 26 238 11.3 40.2 0.00 0.00 0.00 34 996.4
20260504212540 26 229 14.5 40.2 0.00 0.00 0.00 34 996.4
20260504212043 26 266 16.1 35.4 0.00 0.00 0.00 33 996.4
20260504211545 26 255 17.7 38.6 0.00 0.00 0.00 33 996.6
20260504211039 26 300 16.1 38.6 0.00 0.00 0.00 33 996.5
20260504210542 26 247 14.5 29.0 0.00 0.00 0.00 33 996.6
20260504210045 26 253 8.0 22.5 0.00 0.00 0.00 33 996.5
20260504205540 26 260 6.4 22.5 0.00 0.00 0.00 33 996.5
20260504205040 26 275 8.0 29.0 0.00 0.00 0.00 32 996.7
20260504204555 26 255 6.4 40.2 0.00 0.00 0.00 34 996.8
20260504204040 26 288 19.3 40.2 0.00 0.00 0.00 32 996.9
20260504203540 26 250 8.0 32.2 0.00 0.00 0.00 33 996.9
20260504203051 26 259 12.9 32.2 0.00 0.00 0.00 32 997.0
20260504202540 26 234 9.7 27.4 0.00 0.00 0.00 34 997.1
20260504202040 26 316 4.8 33.8 0.00 0.00 0.00 34 997.1
20260504201547 26 246 11.3 37.0 0.00 0.00 0.00 31 997.1